Bloomington, IN

4:33 PM EST on December 10, 2019 (GMT -0500)
Monroe County

Weather History for KBMG - November, 2019

Change the Weather History Date:

Friday, November 22, 2019

  Actual Average Record
Temperature  
Mean Temperature 39 °F 41 °F  
Max Temperature 48 °F 50 °F 70 °F (2010)
Min Temperature 30 °F 32 °F 12 °F (2000)
Degree Days  
Heating Degree Days 26 24  
Month to date heating degree days 615 427  
Since 1 July heating degree days 914 846  
Cooling Degree Days 0 0  
Month to date cooling degree days 0 0  
Year to date cooling degree days 1239 926  
Moisture  
Dew Point 34 °F    
Average Humidity 78    
Maximum Humidity 89    
Minimum Humidity 53    
Precipitation  
Precipitation 0.19 in 0.13 in 0.55 in (2011)
Month to date precipitation 1.19 2.93  
Year to date precipitation 43.38 43.00  
Sea Level Pressure  
Sea Level Pressure 30.08 in    
Wind  
Wind Speed 7 mph ()    
Max Wind Speed 15 mph    
Max Gust Speed 21 mph    
Visibility 9.4 miles    
Events Rain    
T = Trace of Precipitation, MM = Missing Value Source: Averaged Metar Reports

Daily Weather History Graph

Daily Weather History Graph

Search for Another Location

Airport or City:

Astronomy

Nov. 22, 2019 Rise Set
Actual Time 7:37 AM EST 5:27 PM EST
Civil Twilight 7:08 AM EST 5:56 PM EST
Nautical Twilight 6:35 AM EST 6:29 PM EST
Astronomical Twilight 6:03 AM EST 7:01 PM EST
Moon 2:45 AM EST (11/22) 3:25 PM EST (11/22)
Length of Visible Light 10h 48m
Length of Day
9h 50m
Waning Crescent, 20% of the Moon is Illuminated
Nov 22
Waning Crescent
Nov 26
New
Dec 4
First Quarter
Dec 12
Full
Dec 18
Last Quarter

Hourly Weather History & Observations

Time (EST) Temp. Windchill Dew Point Humidity Pressure Visibility Wind Dir Wind Speed Gust Speed Precip Events Conditions
12:53 AM 45.0 °F 40.6 °F 41.0 °F 86% 30.00 in 7.0 mi NW 8.1 mph - 0.01 in Rain Light Rain
1:06 AM 44.1 °F 39.0 °F 41.0 °F 89% 30.00 in 6.0 mi WNW 9.2 mph - 0.01 in Rain Rain
1:24 AM 44.1 °F 40.1 °F 41.0 °F 89% 30.01 in 4.0 mi WNW 6.9 mph - 0.06 in Rain Rain
1:53 AM 43.0 °F 38.2 °F 39.9 °F 89% 30.02 in 5.0 mi WNW 8.1 mph - 0.11 in Rain Rain
2:23 AM 42.1 °F 37.7 °F 39.0 °F 89% 30.00 in 6.0 mi NW 6.9 mph - 0.06 in Rain Light Rain
2:46 AM 42.1 °F 38.4 °F 39.0 °F 89% 30.02 in 10.0 mi NW 5.8 mph - 0.06 in Rain Light Rain
2:53 AM 42.1 °F 39.2 °F 37.9 °F 85% 30.02 in 10.0 mi Variable 4.6 mph - 0.06 in Rain Light Rain
3:53 AM 42.1 °F 35.2 °F 37.9 °F 85% 30.03 in 10.0 mi NNW 12.7 mph - 0.00 in   Overcast
4:18 AM 41.0 °F 34.7 °F 37.0 °F 86% 30.02 in 10.0 mi NNW 10.4 mph - 0.00 in Rain Light Rain
4:49 AM 41.0 °F 36.4 °F 37.4 °F 87% 30.04 in 10.0 mi NNW 6.9 mph 18.4 mph 0.01 in   Overcast
4:53 AM 41.0 °F 35.2 °F 37.0 °F 86% 30.05 in 10.0 mi NNW 9.2 mph 18.4 mph 0.01 in   Overcast
5:13 AM 41.0 °F 36.4 °F 37.0 °F 86% 30.05 in 10.0 mi Variable 6.9 mph - N/A   Overcast
5:27 AM 39.9 °F 35.8 °F 37.0 °F 89% 30.05 in 10.0 mi Variable 5.8 mph - N/A   Overcast
5:53 AM 39.9 °F 33.9 °F 36.0 °F 86% 30.07 in 10.0 mi NNW 9.2 mph - N/A   Overcast
6:53 AM 39.9 °F 32.5 °F 35.1 °F 83% 30.09 in 10.0 mi North 12.7 mph - N/A   Overcast
7:25 AM 39.0 °F 32.8 °F 33.1 °F 79% 30.09 in 10.0 mi North 9.2 mph - N/A   Overcast
7:53 AM 39.0 °F 34.8 °F 34.0 °F 82% 30.12 in 10.0 mi NNW 5.8 mph - N/A   Overcast
8:53 AM 39.0 °F 34.8 °F 34.0 °F 82% 30.13 in 10.0 mi NNW 5.8 mph - N/A   Overcast
9:53 AM 39.9 °F 32.9 °F 35.1 °F 83% 30.14 in 10.0 mi North 11.5 mph - N/A   Overcast
10:53 AM 41.0 °F 34.7 °F 33.1 °F 73% 30.15 in 10.0 mi NNE 10.4 mph - N/A   Overcast
11:53 AM 44.1 °F 38.6 °F 34.0 °F 68% 30.15 in 10.0 mi North 10.4 mph - N/A   Mostly Cloudy
12:09 PM 45.0 °F 41.2 °F 34.0 °F 65% 30.14 in 10.0 mi Variable 6.9 mph - N/A   Scattered Clouds
12:17 PM 44.1 °F 39.0 °F 34.0 °F 68% 30.14 in 10.0 mi NNW 9.2 mph - N/A   Mostly Cloudy
12:51 PM 44.6 °F 39.2 °F 33.8 °F 66% 30.14 in 10.0 mi NNW 10.4 mph - N/A   Scattered Clouds
12:53 PM 45.0 °F 40.6 °F 33.1 °F 63% 30.15 in 10.0 mi NNW 8.1 mph - N/A   Scattered Clouds
1:53 PM 45.0 °F 40.1 °F 33.1 °F 63% 30.12 in 10.0 mi North 9.2 mph - N/A   Clear
2:53 PM 45.0 °F 40.6 °F 32.0 °F 60% 30.10 in 10.0 mi North 8.1 mph - N/A   Clear
3:53 PM 46.0 °F 43.9 °F 30.9 °F 56% 30.12 in 10.0 mi North 4.6 mph - N/A   Clear
4:53 PM 43.0 °F 39.5 °F 30.0 °F 60% 30.12 in 10.0 mi NNE 5.8 mph - N/A   Clear
5:53 PM 37.9 °F 32.7 °F 28.9 °F 70% 30.12 in 10.0 mi NNE 6.9 mph - N/A   Clear
6:53 PM 37.0 °F 31.0 °F 28.0 °F 70% 30.11 in 10.0 mi NE 8.1 mph - N/A   Clear
7:53 PM 32.0 °F - 27.0 °F 82% 30.13 in 10.0 mi Calm Calm - N/A   Clear
8:53 PM 30.9 °F - 27.0 °F 85% 30.12 in 10.0 mi Calm Calm - N/A   Clear
9:53 PM 33.1 °F 27.7 °F 27.0 °F 78% 30.09 in 10.0 mi East 5.8 mph - N/A   Clear
10:53 PM 33.1 °F 28.7 °F 27.0 °F 78% 30.08 in 10.0 mi East 4.6 mph - N/A   Clear
11:53 PM 32.0 °F - 26.1 °F 79% 30.08 in 10.0 mi Calm Calm - N/A   Clear